Regional Weather Roundup
Issued by NWS

Home | Current Version | Previous Version | Text Only | Print | Product List | Glossary On
Versions: 1 2 3 4 5 6 7 8 9 10 11 12 13 14 15 16 17 18 19 20 21 22 23 24 25 26 27 28 29 30 31 32 33 34 35 36 37 38 39 40 41 42 43 44 45 46 47 48 49 50
000
ASUS43 KDTX 031801
RWRMI
MICHIGAN HOURLY REGIONAL WEATHER ROUNDUP
NATIONAL WEATHER SERVICE DETROIT/PONTIAC MI
100 PM EST TUE MAR 03 2015

NOTE: "FAIR" INDICATES FEW OR NO CLOUDS BELOW 12,000 FEET WITH NO
SIGNIFICANT WEATHER AND/OR OBSTRUCTION TO VISIBILITY.

MIZ047>049-052>055-059>063-066>070-074>076-081>083-031900-
SOUTHEAST LOWER MICHIGAN

CITY           SKY/WX    TMP DP  RH WIND       PRES   REMARKS
ADRIAN         FRZ RAIN  28  25  88 S15       29.76F FOG     WCI  16
6HR MIN TEMP:  20; 6HR MAX TEMP:  28; 6HR PCP: TRACE;

ALMA           CLOUDY    24  22  91 SE8       29.70F WCI  15
ANN ARBOR      CLOUDY    27  25  92 S13G20    29.76F FOG     WCI  16
BAD AXE        LGT SNOW  23  21  92 S9        29.78F VSB 3/4 WCI  13
CARO           LGT SNOW  24  21  86 SE10G16   29.74F WCI  14
DETROIT CITY   FRZ RAIN  30  24  78 S17       29.80F WCI  18
6HR MIN TEMP:  23; 6HR MAX TEMP:  30; 6HR PCP:  0.15;

DETROIT        FRZ RAIN  28  25  88 SE14      29.80F FOG     WCI  17
6HR MIN TEMP:  22; 6HR MAX TEMP:  28; 6HR PCP:  0.26;

FLINT          MIX PCPN  28  22  78 S16       29.72F WCI  16
6HR MIN TEMP:  23; 6HR MAX TEMP:  28; 6HR PCP:  0.25;

GROSSE ILE     MIX PCPN  28  25  86 SE14G22   29.77F WCI  17
HILLSDALE      MIX PCPN  28  26  94 S13G18    29.71F WCI  17
6HR MIN TEMP:  21; 6HR MAX TEMP:  28;

HOWELL         CLOUDY    27  24  90 S15G22    29.70F FOG     WCI  15
6HR MIN TEMP:  20; 6HR MAX TEMP:  27;


CITY           SKY/WX    TMP DP  RH WIND       PRES   REMARKS
JACKSON        CLOUDY    28  25  88 S15G24    29.71F FOG     WCI  16
6HR MIN TEMP:  20; 6HR MAX TEMP:  28; 6HR PCP:  0.10;

LAMBERTVILLE   CLOUDY    32  27  80 SE13G21   29.75F HAZE    WCI  22
LANSING        SLEET     28  23  81 S17G28    29.70F WCI  16
6HR MIN TEMP:  21; 6HR MAX TEMP:  28; 6HR PCP:  0.26;

LAPEER         LGT SNOW  25  21  86 SE9       29.73F WCI  15
MASON          CLOUDY    28  24  85 S14       29.70F WCI  16
MONROE         CLOUDY    28  25  86 SE15      29.76F FOG     WCI  17
MT. CLEMENS    FRZ RAIN  28  26  91 SE20      29.77F FOG     WCI  15
6HR MIN TEMP:  21; 6HR MAX TEMP:  28; 6HR PCP:  0.27;

PONTIAC        LGTSLEET  26  23  88 S15       29.72F FOG     WCI  14
6HR MIN TEMP:  20; 6HR MAX TEMP:  26; 6HR PCP:  0.19;

PORT HOPE        N/A     23  19  85 SE13      29.78F WCI  11
6HR MIN TEMP:  21; 6HR MAX TEMP:  23; 6HR PCP:  0.14;

PORT HURON     LGT SNOW  25  23  93 SE14G21   29.81F WCI  13
TRI CITIES     CLOUDY    25  21  85 SE14      29.72F FOG     WCI  13
6HR MIN TEMP:  23; 6HR MAX TEMP:  25; 6HR PCP:  0.06;

TROY           LGT SNOW  29  26  88 SE8       29.78F WCI  21
SAGINAW HB     CLOUDY    27  23  86 SE12      29.73F FOG     WCI  16
$$
MIZ043>046-050>051-056>058-064>065-071>073-077>080-031900-
SOUTHWEST LOWER MICHIGAN

CITY           SKY/WX    TMP DP  RH WIND       PRES   REMARKS
BATTLE CREEK   CLOUDY    30  25  81 S20       29.64F HAZE    WCI  17
6HR MIN TEMP:  23; 6HR MAX TEMP:  30; 6HR PCP:  0.12;

BENTON HARBOR  CLOUDY    31  29  92 S13G30    29.66F FOG     WCI  21
6HR MIN TEMP:  22; 6HR MAX TEMP:  31; 6HR PCP:  0.10;

BIG RAPIDS     CLOUDY    24  24  96 SE14      29.64F FOG     WCI  12
6HR MIN TEMP:  22; 6HR MAX TEMP:  24;

COLDWATER      LGT SNOW  29  26  89 S14G22    29.69F WCI  18
6HR MIN TEMP:  21; 6HR MAX TEMP:  29;

FREMONT        MIX PCPN  26  24  93 S7        29.64F WCI  18
HOLLAND        CLOUDY    30  26  85 S12       29.67F FOG     WCI  20
6HR MIN TEMP:  24; 6HR MAX TEMP:  30; 6HR PCP:  0.22;

GRAND RAPIDS   FRZ DRZL  28  25  88 S12       29.65F FOG     WCI  18
6HR MIN TEMP:  22; 6HR MAX TEMP:  28; 6HR PCP:  0.35;

IONIA          CLOUDY    29  26  88 S18G24    29.65F FOG     WCI  16
KALAMAZOO      FRZ RAIN  29  25  85 S13G23    29.68F WCI  19
6HR MIN TEMP:  22; 6HR MAX TEMP:  29;

LUDINGTON      MIX PCPN  27  24  86 S10G16    29.63F WCI  17
6HR MIN TEMP:  23; 6HR MAX TEMP:  27;

MARSHALL       CLOUDY    27  25  89 S10G16    29.69F WCI  18
MOUNT PLEASANT MIX PCPN  24  22  90 SE10      29.69F WCI  14
6HR MIN TEMP:  23; 6HR MAX TEMP:  24; 6HR PCP:  0.02;

MUSKEGON       FRZ RAIN  28  25  88 S10       29.66F VSB 1   WCI  19
6HR MIN TEMP:  24; 6HR MAX TEMP:  28; 6HR PCP:  0.37;

SOUTH HAVEN    CLOUDY    31  29  90 S9        29.68F FOG     WCI  23
$$
MIZ016>042-031900-
NORTHERN LOWER MICHIGAN

CITY           SKY/WX    TMP DP  RH WIND       PRES   REMARKS
ALPENA         SNOW      23  20  88 S12       29.75F VSB 1/2 WCI  12
6HR MIN TEMP:  14; 6HR MAX TEMP:  23; 6HR PCP:  0.23;

BEAVER ISLAND  SNOW      24  21  89 SE6       29.67F VSB 1/2 WCI  17
6HR MIN TEMP:  19; 6HR MAX TEMP:  24;

BELLAIRE       LGT SNOW  25  20  83 SE7       29.68F WCI  17
6HR MIN TEMP:  21; 6HR MAX TEMP:  25;

CADILLAC       LGT SNOW  22  19  88 SE10      29.61F VSB 1   WCI  11
CHARLEVOIX     SNOW      24  22  91 SE8       29.71F VSB 1/2 WCI  15
FRANKFORT      LGT SNOW  25  23  91 S12G17    29.63F WCI  14
GAYLORD        SNOW      20  19  96 S9        29.65F VSB 1/2 WCI   9
6HR MIN TEMP:  16; 6HR MAX TEMP:  20; 6HR PCP: TRACE;

GRAYLING       LGT SNOW  21  19  91 SE7       29.67F VSB 3/4 WCI  13
6HR MIN TEMP:  18; 6HR MAX TEMP:  21;

HARBOR SPRINGS SNOW      23  21  91 E3        29.69F VSB 1/4
HOUGHTON LAKE  LGT SNOW  22  18  85 SE10      29.66F VSB 1   WCI  11
6HR MIN TEMP:  19; 6HR MAX TEMP:  22; 6HR PCP:  0.10;

MANISTEE       CLOUDY    25  19  80 SE9       29.63F WCI  15
OSCODA         LGT SNOW  24  21  91 S8G17     29.76F VSB 3/4 WCI  15
PELLSTON       SNOW      23  20  88 SE6       29.71F VSB 1/4 WCI  16
6HR MIN TEMP:   9; 6HR MAX TEMP:  23; 6HR PCP:  0.07;

ROGERS CITY    LGT SNOW  23  22  95 S9        29.74F VSB 3/4 WCI  13
TRAVERSE CITY  LGT SNOW  25  21  85 VRB6      29.64F VSB 1   WCI  18
6HR MIN TEMP:  22; 6HR MAX TEMP:  25; 6HR PCP:  0.03;

$$
MIZ007>008-015-031900-
EASTERN UPPER MICHIGAN

CITY           SKY/WX    TMP DP  RH WIND       PRES   REMARKS
KINROSS        CLOUDY    25  21  86 S8        29.71F VSB 1   WCI  16
6HR MIN TEMP:  10; 6HR MAX TEMP:  25;

MACKINAC ISLAN LGT SNOW  23  21  89 S6        29.70F VSB 3/4 WCI  16
6HR MIN TEMP:  14; 6HR MAX TEMP:  24;

NEWBERRY       SNOW      21  19  91 S7        29.66F VSB 1/4 WCI  13
S. S. MARIE    SNOW      20  17  88 VRB5      29.72F VSB 1/2 WCI  13
6HR MIN TEMP:   3; 6HR MAX TEMP:  20; 6HR PCP:  0.11;

MUNISING         N/A     28  23  81 S6        29.61F WCI  22
6HR MIN TEMP:  23; 6HR MAX TEMP:  28; 6HR PCP:  0.06;

$$
MIZ004>006-011>014-085-031900-
CENTRAL UPPER MICHIGAN

CITY           SKY/WX    TMP DP  RH WIND       PRES   REMARKS
MANISTIQUE     SNOW      25  24  95 S10       29.64F VSB 1/2 WCI  15
ESCANABA       CLOUDY    27  25  93 S8        29.61F VSB 1/2 WCI  18
6HR MIN TEMP:  21; 6HR MAX TEMP:  27;

MENOMINEE      CLOUDY    28  25  86 SW7       29.60F WCI  21
6HR MIN TEMP:  21; 6HR MAX TEMP:  28; 6HR PCP:  0.01;

SAWYER-GWINN   LGT SNOW  23  21  93 S6        29.58F VSB 1   WCI  16
$$
MIZ001>003-009>011-084-031900-
WESTERN UPPER MICHIGAN

CITY           SKY/WX    TMP DP  RH WIND       PRES   REMARKS
IRON MOUNTAIN  SNOW      24  21  88 CALM      29.57F VSB 1/4
6HR MIN TEMP:  18; 6HR MAX TEMP:  24; 6HR PCP:  0.02;

HOUGHTON       LGT SNOW  21  17  84 SW8       29.55F VSB 3/4 WCI  11
6HR MIN TEMP:  18; 6HR MAX TEMP:  21; 6HR PCP:  0.04;

COPPER HARBOR    N/A     24  20  84 SW10G21   29.57F WCI  14
6HR MIN TEMP:  21; 6HR MAX TEMP:  24; 6HR PCP:  0.15;

IRONWOOD       CLOUDY    21  19  93 SW13      29.54F VSB 1/2 WCI   9
6HR MIN TEMP:  19; 6HR MAX TEMP:  21;

$$

ABBREVIATIONS USED IN REMARKS
   TC - TEMPERATURE IN CELSIUS
  WCI - WIND CHILL INDEX
   HX - HEAT INDEX
  VSB - VISIBILITY




USA.gov is the U.S. government's official web portal to all federal, state and local government web resources and services.